Location: Shades State Park
(39.9310°N, 87.0690°W)
Time: 14:22:36
(UTC-04:00)

ISS - Visible Passes

Search period start: 21 October 2014 00:00
Search period end: 31 October 2014 00:00
Orbit: 413 x 416 km, 51.6° (Epoch: 20 October)

Date Brightness Start Highest point End Pass type
(mag) Time Alt. Az. Time Alt. Az. Time Alt. Az.
21 Oct -1.7 20:29:28 10° NNW 20:31:58 24° NNE 20:31:58 24° NNE visible
22 Oct -1.4 19:40:37 10° NNW 19:43:01 18° NNE 19:45:00 12° ENE visible
22 Oct -0.7 21:16:46 10° NW 21:17:52 19° NW 21:17:52 19° NW visible
23 Oct -3.0 20:27:43 10° NW 20:30:57 50° NNE 20:30:57 50° NNE visible
24 Oct -2.3 19:38:44 10° NW 19:41:47 32° NNE 19:44:07 15° E visible
24 Oct -0.7 21:15:27 10° WNW 21:17:00 21° W 21:17:00 21° W visible
25 Oct -2.8 20:26:05 10° WNW 20:29:22 57° SW 20:30:18 39° SSE visible
26 Oct -3.3 19:36:51 10° NW 19:40:11 77° NE 19:43:31 10° ESE visible
26 Oct -0.1 21:15:27 10° WSW 21:16:25 11° SW 21:16:41 11° SW visible
27 Oct -0.7 20:24:52 10° W 20:27:23 20° SW 20:29:53 10° S visible
28 Oct -1.6 19:35:10 10° WNW 19:38:15 36° SW 19:41:19 10° SSE visible
30 Oct 0.0 19:34:21 10° W 19:35:57 13° SW 19:37:33 10° SSW visible
